Weather in Breclav

Czech Republic     48°45′47″N   16°53′06″E
temp.,
°C
wind,
m/s
gust,
m/s
humid.,
%
clouds,
%
prec.,
mm/h
press.,
hPa
HPBL,
m
28 november, sun
sun2801:000nnw1199100 0.0 99918
04:00+1ene1199100 0.0 99829
07:00+1nne23100100 0.0 99690
10:00+1nne46100100 4.2 995170
13:000nw46100100 9.6 993186
16:00+1w36100100 0.6 994291
19:00+1wnw51091100 0.6 995415
22:00−1wnw51089100 0.0 996294
29 november, mon
mon2901:00−2nw512909 0.0 997339
04:00−3wnw3992100 0.0 998179
07:00−3wnw41191100 0.0 1000292
10:00−1wnw4108898 0.0 1002375
13:000wnw510886 0.0 1003631
16:00−1wnw4108960 0.0 1005237
19:00−1wnw513845 0.0 1007358
22:00−2wnw614875 0.0 1008458
30 november, tue
tue3001:00−1wnw511846 0.0 1009354
04:00−2wnw412875 0.0 1011349
07:00−2wnw5118830 0.0 1013321
10:000w410875 0.0 1015496
13:00+1wsw31186100 0.0 1012669
16:00+2wsw71685100 0.3 10101147
19:00+1wsw71596100 1.6 1009947
22:00+2w81689100 1.6 1008975
1 december, wed
wed101:00+3w81789100 2.3 1009889
04:00+3w71690100 0.0 1009678
07:00+3w41395100 0.1 1010528
10:00+4wsw41394100 0.6 1010466
13:00+5ssw3495100 1.3 1008101
16:00+5s3393100 0.0 100654
19:00+3sse478691 0.0 1006127
22:00+2sse378998 0.0 1004132
2 december, thu
thu201:00+1sse369392 0.0 1003112
04:00+1ese2390100 0.0 100253
07:00+1ese3693100 0.0 1002125
10:00+3s3485100 0.0 1002194
13:00+3se2389100 0.6 1000126
16:00+3s2396100 1.6 100097
19:00+3w1194100 1.6 100011
22:00+3ese1194100 0.0 100010